Current weather by "City, St" or "zip code"  
 
Advertise Here

Current Conditions: Du Bois - Jefferson County Airport, PA

Fair


64.0 F

Last Updated on Sep 16 2021, 9:53 pm EDT
Humidity: 93%
Wind Speed: E 3.5 mph
Barometer 30.24 in
Dewpoint: 62.1 F
Visibility: 10.00 mi
Precip: --
Heat Index: NA
Wind Chill: NA
Current conditions at:

Du Bois - Jefferson County Airport, PA (KDUJ)

Lat: 41.17948 Lon: 78.89326

Local Radar Image active severe weather and emergency alerts image image weather storm and storm spotter reports image weather observation monitoring service image
Local
Radar
Active
Alerts
Storm Reports Obs
Monitoring

Sign-up For Email & Text Message Weather Alert Notification Services



Advertise Here

Observation History for Du Bois - Jefferson County Airport, PA


Time Wind
(mph)
Vis
(mi)
Weather Precip (in) Temperature (F) Relative
Humidity
Wind
Chill
(F)
Heat
Index
(F)
Pressure
Air Dwpt altimeter
(in)
sea level
(mb)
Rmks
9:53 pm EDT E 3.5 10.00 Fair -- 64.0 62.1 93% NA NA 30.24 1023.6
8:53 pm EDT E 4.6 10.00 Fair -- 65.0 62.1 90% NA NA 30.23 1023.2
7:53 pm EDT E 3.5 10.00 Mostly Cloudy -- 67.0 63.0 87% NA NA 30.22 1022.6
6:53 pm EDT E 3.5 10.00 Overcast -- 69.0 64.0 84% NA NA 30.20 1022.2
5:53 pm EDT E 4.6 10.00 Overcast -- 70.0 63.0 79% NA NA 30.20 1021.9
4:53 pm EDT E 4.6 10.00 Mostly Cloudy -- 70.0 63.0 79% NA NA 30.19 1021.7
3:53 pm EDT SE 8.1 10.00 Overcast -- 70.0 63.0 79% NA NA 30.20 1021.8
2:53 pm EDT SE 9.2 10.00 Overcast -- 70.0 63.0 79% NA NA 30.20 1022.0
1:53 pm EDT E 6.9 10.00 Overcast -- 70.0 62.1 76% NA NA 30.22 1022.5
12:53 pm EDT SE 6.9 10.00 Overcast -- 68.0 62.1 81% NA NA 30.22 1022.8
11:53 am EDT E 8.1 10.00 Overcast -- 66.0 61.0 84% NA NA 30.23 1023.0
10:53 am EDT E 8.1 10.00 Overcast -- 61.0 59.0 93% 60 NA 30.22 1022.9
9:53 am EDT E 6.9 7.00 Overcast -- 60.0 57.9 93% 59 NA 30.22 1022.7
8:53 am EDT NE 8.1 4.00 Fog/Mist -- 57.0 55.9 96% 55 NA 30.21 1022.6
7:53 am EDT E 8.1 0.15 Fog -- 56.0 55.0 97% 54 NA 30.20 1022.3
6:53 am EDT E 5.8 3.00 Fog/Mist -- 55.0 54.0 96% 54 NA 30.17 1021.4
5:53 am EDT E 5.8 10.00 Fair -- 55.0 53.1 93% 54 NA 30.15 1020.5
4:53 am EDT E 4.6 10.00 Fair -- 56.0 54.0 93% 55 NA 30.14 1020.1
3:53 am EDT NE 4.6 6.00 Fog/Mist -- 57.0 55.0 93% 57 NA 30.13 1019.8
2:53 am EDT E 5.8 8.00 A Few Clouds -- 57.0 55.9 96% 56 NA 30.13 1019.5
1:53 am EDT E 4.6 10.00 Fair -- 58.0 55.9 93% 58 NA 30.13 1019.4
12:53 am EDT E 4.6 10.00 Fair -- 59.0 55.9 90% 59 NA 30.13 1019.3
11:53 pm EDT E 4.6 10.00 Mostly Cloudy -- 60.0 57.9 93% 60 NA 30.13 1019.4
10:53 pm EDT E 5.8 10.00 Mostly Cloudy -- 61.0 57.9 90% 61 NA 30.11 1018.8

Regional Weather Observation


St Marys Municipal Airport, PA (KOYM)

Overcast
64.0 F

Franklin, Venango Regional Airport, PA (KFKL)

Fair
65.0 F

Bradford Regional Airport, PA (KBFD)

Fair
62.0 F

Clearfield, Clearfield-Lawrence Airport, PA (KFIG)

Overcast
67.0 F

Indiana / Stewart Field, PA (KIDI)

NULL
68.0 F

Butler, Butler County Airport/K W Scholter Field, PA (KBTP)

Fair
67.0 F
Advertise Here


Advertise Here